sat.trackr.live / text

‹ back to catalog

STARLINK-2564

NORAD 48284 · 2021-036J

PAYLOAD ACTIVE UNKNOWN

§ Identity

Operator
Country
US
Launch date
2021-04-29
Launch site
AFETR
Launch vehicle
Mass (kg)
RCS (m²)

Purposes: comms

External: N2YO · Heavens-Above · Gunter

§ Orbital elements

Epoch: 2026-05-25T02:46:45.673824Z

Period
94.01 min
Inclination
53.1609°
Eccentricity
0.0001271
Mean motion
15.31698139 rev/d
Perigee alt
469.9 km
Apogee alt
471.6 km
Semi-major
6,848.9 km
B*
-3.4024e-5
RAAN
80.4237°
Arg perigee
78.4475°
Mean anomaly
281.6669°
Rev number
28,010

§ Raw data

STARLINK-25641 48284U 21036J   26145.11580641 -.00001421  00000+0 -34024-4 0  99982 48284  53.1609  80.4237 0001271  78.4475 281.6669 15.31698139280107

JSON: /api/v1/satellites/48284 · /tle

For live sub-satellite position, see the globe view (requires WebGL).

§ Visibility from observer

Set your observer location to see the next 7 days of passes ≥ 10°. The values pass through the URL so the page stays shareable.

No JS? Fill the form by hand. The geolocation button needs JavaScript.